Content
SEND FEEDBACK

Daily
Averages
Monthly
Summary
United States of America

HILLSIDE, NEW JERSEY


Home > North America > United States > New Jersey
Elevation: 40 feet     Latitude: 40 40N     Longitude: 074 14W

WEATHER
 
SELECT A DAY
Number of Records: 189,762;   Date Range: 1/1/95 - 8/28/14
 
SHARE

PRINT THIS DATA

[ ← Previous Day ]
WEATHER ALMANAC - MARCH 17, 2013
[ Next Day → ]
[ °C ]   °F
Weather ElementAverageHighLow
Temperature34.4 °F37.9 °F (3:51 pm)30 °F (6:51 am)
Dewpoint16.4 °F28.9 °F (12:51 am)9 °F (11:51 pm)
Humidity49.8 %82 % (12:51 am)35 % (5:51 pm)
Barometer30.13 in30.31 in (11:51 pm)29.93 in (12:51 am)
Wind Speed12.1 mph18.4 mph (11:51 am)
Wind Gust28.8 mph (1:51 pm)
Weather ElementAverage
Visibility10 mi
Wind DirectionNNW (325.4 °)

Weather ElementTotal
Precipitation---
Heating Degree Days31.1 (Base 65)
Averaged from 24 records on March 17, 2013
WEATHER CONDITIONS BREAKOUT
WIND DIRECTION BREAKOUT
WEATHER BY HOUR - MARCH 17, 2013
[ °C ]   °F
Local TimeTemperatureDewpointHumidityBarometerVisibilityWind DirectionWind SpeedGust SpeedPrecipitationEventsConditions
12:51 AM34.0 °F28.9 °F82 %29.93 in10.0 miNW (310°)5.8 mphOvercast
1:51 AM34.0 °F27.0 °F75 %29.93 in10.0 miNW (320°)5.8 mphScattered Clouds
2:51 AM33.1 °F26.1 °F75 %29.94 in10.0 miNNW (330°)5.8 mphPartly Cloudy
3:51 AM32.0 °F24.1 °F73 %29.96 in10.0 miNNW (340°)10.4 mph19.6 mphPartly Cloudy
4:51 AM30.9 °F21.9 °F69 %29.99 in10.0 miNNW (340°)8.1 mphPartly Cloudy
5:51 AM30.9 °F21.0 °F67 %30.01 in10.0 miNW (310°)13.8 mphPartly Cloudy
6:51 AM30.0 °F16.0 °F56 %30.06 in10.0 miNNW (340°)15.0 mphScattered Clouds
7:51 AM30.0 °F15.1 °F54 %30.09 in10.0 miNNW (330°)15.0 mphMostly Cloudy
8:51 AM30.9 °F16.0 °F54 %30.13 in10.0 miNW (310°)9.2 mph19.6 mphMostly Cloudy
9:51 AM34.0 °F16.0 °F48 %30.14 in10.0 miNNW (330°)15.0 mphMostly Cloudy
10:51 AM34.0 °F15.1 °F46 %30.14 in10.0 miNNW (330°)17.3 mphMostly Cloudy
11:51 AM35.1 °F15.1 °F44 %30.14 in10.0 miNorth (350°)18.4 mphMostly Cloudy
12:51 PM36.0 °F14.0 °F41 %30.15 in10.0 miNNW (340°)18.4 mph25.3 mphMostly Cloudy
1:51 PM37.0 °F15.1 °F41 %30.16 in10.0 miNW (310°)17.3 mph28.8 mphMostly Cloudy
2:51 PM37.4 °F14.0 °F38 %30.15 in10.0 miNW (320°)17.3 mphOvercast
3:51 PM37.9 °F14.0 °F38 %30.15 in10.0 miNW (310°)11.5 mph19.6 mphMostly Cloudy
4:51 PM37.4 °F12.2 °F36 %30.16 in10.0 miNNW (330°)12.7 mph17.3 mphOvercast
5:51 PM37.9 °F12.0 °F35 %30.18 in10.0 miNW (320°)15.0 mphOvercast
6:51 PM37.0 °F12.0 °F36 %30.21 in10.0 miNW (320°)10.4 mph17.3 mphOvercast
7:51 PM36.0 °F12.0 °F37 %30.23 in10.0 miWNW (300°)9.2 mphOvercast
8:51 PM36.0 °F12.9 °F39 %30.26 in10.0 miNW (310°)6.9 mphOvercast
9:51 PM36.0 °F12.0 °F37 %30.28 in10.0 miNW (310°)9.2 mphOvercast
10:51 PM35.1 °F12.0 °F39 %30.30 in10.0 miNNW (340°)9.2 mphMostly Cloudy
11:51 PM34.0 °F9.0 °F35 %30.31 in10.0 miNorth (360°)12.7 mphMostly Cloudy
Hourly data recorded from KEWR, located miles away from Hillside, New Jersey







STORIES FROM OUR PARTNERS